Kuchera_Ratio
0.0 0.0 0.0 0.0 0.0 0.0 0.0 0.0 0.0 0.0 0.0 0.0 0.0 0.0 0.0 0.0 0.0 0.0 0.0 0.0 0.0 0.0 0.0 0.0 0.0 0.0 0.0 0.0 0.0 0.0 0.0 0.0 0.0 0.0 0.0 0.0 0.0 0.0 0.0 0.0 0.0 0.0 0.0
0.0 0.0 0.0 0.0 0.0 0.0 0.0 0.0 0.0 0.0 0.0 0.0 0.0 0.0 0.0 0.0 0.0 0.0 0.0 0.0 0.0 0.0 0.0 0.0 0.0 0.0 0.0 0.0 0.0 0.0 0.0 0.0 0.0 0.0 0.0 0.0 0.0 0.0 0.0 0.0 0.0 0.0 0.0
0.0 0.0 0.0 0.0 0.0 0.0 0.0 0.0 0.0 0.0 0.0 0.0 0.0 0.0 0.0 0.0 0.0 0.0 0.0 0.0 0.0 0.0 0.0 0.0 0.0 0.0 0.0 0.0 0.0 0.0 0.0 0.0 0.0 0.0 0.0 0.0 0.0 0.0 0.0 0.0 0.0 0.0 0.0
0.0 0.0 0.0 0.0 0.0 0.0 0.0 0.0 0.0 0.0 0.0 0.0 0.0 0.0 0.0 0.0 0.0 0.0 0.0 0.0 0.0 0.0 0.0 0.0 0.0 0.0 0.0 0.0 0.0 0.0 0.0 0.0 0.0 0.0 0.0 0.0 0.0 0.0 0.0 0.0 0.0 0.0 0.0
0.0 0.0 0.0 0.0 0.0 0.0 0.0 0.0 0.0 0.0 0.0 0.2 0.0 0.0 0.0 0.0 0.0 0.0 0.0 0.0 0.0 0.0 0.0 0.0 0.0 0.0 0.0 0.0 0.0 0.0 0.0 0.0 0.0 0.0 0.0 0.0 0.0 0.0 0.0 0.0 0.0 0.0 0.0
0.0 0.0 0.0 0.0 0.0 0.0 0.0 0.1 0.6 1.0 2.1 3.6 0.0 0.0 0.3 0.0 0.0 0.0 0.0 0.0 0.0 0.0 0.0 0.0 0.0 0.0 0.0 0.0 0.0 0.0 0.0 0.0 0.0 0.0 0.0 0.0 0.0 0.0 0.0 0.0 0.0 0.0 0.0
0.0 0.0 0.0 0.0 0.0 0.2 0.8 1.8 2.4 3.4 4.0 3.5 5.4 4.7 3.1 1.3 1.8 0.0 0.0 0.0 0.0 0.0 0.0 0.0 0.0 0.0 0.0 0.0 0.0 0.0 0.0 0.0 0.0 0.0 0.0 0.0 0.0 0.0 0.0 0.0 0.0 0.0 0.0
0.0 0.0 0.0 0.0 0.5 1.4 2.4 3.5 4.9 6.1 5.8 6.2 8.7 9.1 8.1 8.0 3.7 0.9 0.3 0.0 0.0 0.0 0.0 0.0 0.0 0.0 0.0 0.0 0.0 0.0 0.0 0.0 0.0 0.0 0.0 0.0 0.0 0.0 0.0 0.0 0.0 0.0 0.0
0.0 0.0 0.0 0.0 1.1 2.5 3.5 4.9 5.4 6.0 9.4 7.6 7.2 11.4 12.7 12.5 11.0 5.4 4.0 2.4 1.9 2.2 1.2 0.0 0.0 0.0 0.0 0.0 0.0 0.0 0.0 0.0 0.0 0.0 0.0 0.0 0.0 0.0 0.0 0.0 0.0 0.0 0.0
0.0 0.0 0.0 0.0 1.1 2.9 4.8 5.4 1.8 6.5 7.7 10.2 9.1 4.0 8.3 9.4 13.9 13.4 7.3 5.1 2.5 1.8 2.8 2.5 0.9 0.0 0.0 0.0 0.0 0.0 0.0 0.0 0.0 0.0 0.0 0.0 0.0 0.0 0.0 0.0 0.0 0.0 0.0
0.0 0.0 0.0 0.0 2.0 3.5 4.9 6.0 6.6 7.3 7.7 8.9 10.3 10.6 10.4 10.0 8.7 12.7 15.2 12.3 6.7 4.3 3.3 3.0 1.9 0.9 0.0 0.0 0.0 0.0 0.0 0.0 0.0 0.0 0.0 0.0 0.0 0.0 0.0 0.0 0.0 0.0 0.0
0.9 0.0 0.0 1.1 2.3 4.0 6.4 7.0 7.5 8.0 8.6 9.3 9.8 10.6 11.2 12.6 12.7 12.6 13.9 13.3 13.0 8.8 5.2 4.1 3.6 2.5 0.1 0.0 0.0 0.0 0.0 0.0 0.0 0.0 0.0 0.0 0.0 0.0 0.0 0.0 0.0 0.0 0.0
2.5 3.1 2.3 3.7 5.1 4.4 4.7 5.5 8.5 9.1 9.6 10.2 10.6 10.8 9.1 10.1 9.3 10.1 12.3 13.6 13.8 10.8 9.1 4.8 2.9 2.2 0.1 1.2 0.8 0.0 0.0 0.0 0.0 0.0 0.0 0.0 0.0 0.0 0.0 0.0 0.0 0.0 0.0
3.7 2.7 3.8 4.2 4.6 4.7 5.4 6.2 9.6 10.1 9.7 11.0 11.4 11.8 10.6 9.4 8.6 9.1 12.0 13.6 15.3 13.9 12.3 11.8 4.7 3.5 2.7 1.9 0.0 0.0 0.0 0.0 0.0 0.0 0.0 0.0 0.0 0.0 0.0 0.0 0.0 0.0 0.0
2.7 2.6 4.5 6.0 6.2 6.2 6.5 7.7 10.5 11.0 11.5 12.0 12.2 12.4 12.3 10.1 9.9 10.5 11.1 11.6 14.3 17.2 15.9 12.3 11.7 4.1 3.0 1.6 0.5 0.2 0.5 0.0 0.0 0.0 0.0 0.0 0.0 0.0 0.0 0.0 0.0 0.0 0.0
5.7 6.6 7.7 8.6 8.8 7.6 7.9 10.1 11.4 11.7 12.3 12.3 10.1 11.6 12.0 11.4 11.4 11.4 11.8 12.1 12.4 14.2 16.3 12.0 9.9 5.7 2.7 0.9 0.0 0.0 0.0 0.0 0.0 0.0 0.0 0.0 0.0 0.0 0.0 0.0 0.0 0.0 0.0
6.8 7.8 8.6 9.3 9.6 10.1 10.2 11.8 12.2 12.1 12.5 12.7 12.6 12.4 12.1 11.9 12.4 12.1 11.7 11.9 12.5 12.5 15.0 12.6 8.5 5.3 5.6 4.6 2.5 0.3 0.0 0.0 0.0 0.0 0.0 0.0 0.0 0.0 0.0 0.0 0.0 0.0 0.0
8.0 8.9 9.5 10.2 10.5 10.6 11.0 12.2 12.6 12.8 13.0 13.0 12.7 12.6 12.3 9.4 12.5 12.2 12.2 12.7 12.7 12.3 13.2 14.3 11.2 8.8 7.5 4.4 3.1 2.3 0.0 0.0 0.0 0.0 0.0 0.0 0.0 0.0 0.0 0.0 0.0 0.0 0.0
9.2 10.3 10.8 11.8 11.6 11.5 12.1 12.3 12.6 12.6 12.5 12.8 12.7 12.7 12.7 12.5 12.9 12.4 12.3 12.1 11.3 9.8 11.4 12.3 12.5 8.0 7.1 4.2 3.2 1.8 0.9 0.0 0.0 0.0 0.0 0.0 0.0 0.0 0.0 0.0 0.0 0.0 0.0
10.4 11.2 12.1 12.0 11.9 12.0 11.0 11.5 10.9 12.3 12.8 11.8 11.0 11.5 11.8 12.1 12.1 12.3 11.4 11.4 10.0 10.6 9.9 10.6 10.7 9.9 7.0 3.1 3.8 5.9 4.9 1.8 3.2 0.0 0.0 0.0 0.0 0.0 0.0 0.0 0.0 0.0 0.0
11.7 12.3 12.5 12.6 12.7 12.2 8.8 10.4 7.8 7.9 10.1 11.4 7.7 8.4 9.1 8.1 3.8 3.3 5.5 8.9 9.3 11.0 10.5 11.3 11.4 10.6 8.2 7.9 9.1 5.3 5.9 5.1 2.9 0.7 3.1 3.8 0.1 0.0 0.0 0.0 0.0 0.0 0.0
12.5 12.9 13.0 13.1 13.2 9.8 4.8 2.9 2.3 6.3 8.5 11.2 12.1 10.4 9.7 7.1 7.3 3.2 1.7 1.8 2.9 8.5 11.2 11.6 11.0 11.3 10.5 8.9 6.8 7.0 7.2 8.8 10.5 0.0 5.5 6.2 1.2 0.2 0.0 0.0 0.0 0.0 0.0
13.1 13.2 13.3 13.3 13.4 13.4 5.1 2.9 1.8 5.6 9.2 11.1 10.9 10.7 9.8 7.0 6.2 8.8 6.2 3.7 3.8 2.9 2.2 6.4 11.1 11.7 10.4 7.5 6.9 8.2 7.0 7.5 8.7 5.1 7.2 7.4 2.2 1.7 0.0 0.0 0.0 0.0 0.0
13.4 13.6 13.5 13.5 14.0 12.2 5.6 3.6 2.2 8.7 11.1 10.4 10.3 10.7 11.1 10.5 8.9 6.0 6.6 8.7 6.9 5.5 6.9 5.0 6.3 7.0 5.3 3.7 1.8 3.1 4.0 6.1 5.1 4.1 7.5 10.2 4.5 5.3 0.7 0.0 0.0 0.0 0.0
13.7 13.7 12.9 14.0 14.4 13.6 6.7 4.2 3.2 9.8 10.0 10.5 9.4 9.4 9.8 8.2 3.3 0.7 3.9 6.8 6.5 5.4 1.9 0.3 0.0 0.0 0.0 0.0 0.0 2.2 6.5 8.2 9.0 7.4 7.6 8.3 7.8 7.4 5.0 0.8 0.0 0.0 0.0
12.6 12.2 12.4 13.3 12.2 13.6 8.7 4.4 3.6 7.6 11.3 10.7 8.6 7.3 4.3 2.9 0.3 0.0 2.9 7.0 9.4 6.9 8.1 8.0 4.6 2.8 2.6 3.9 0.0 2.7 4.4 8.2 9.1 9.4 6.8 9.6 7.9 8.3 7.2 0.0 0.0 0.0 0.0